sat.trackr.live / text

‹ back to catalog

STARLINK-36318

NORAD 68048 · 2026-041J

PAYLOAD ACTIVE UNKNOWN

§ Identity

Operator
Country
US
Launch date
2026-03-02
Launch site
AFETR
Launch vehicle
Mass (kg)
RCS (m²)

Purposes: comms

External: N2YO · Heavens-Above · Gunter

§ Orbital elements

Epoch: 2026-09-20T04:05:38.372928Z

Period
93.85 min
Inclination
53.1567°
Eccentricity
0.0001220
Mean motion
15.34399899 rev/d
Perigee alt
461.9 km
Apogee alt
463.5 km
Semi-major
6,840.8 km
B*
4.9113e-4
RAAN
221.6025°
Arg perigee
89.2665°
Mean anomaly
270.8477°
Rev number
3,123

§ Raw data

STARLINK-363181 68048U 26041J   26263.17058302  .00016253  00000+0  49113-3 0  99912 68048  53.1567 221.6025 0001220  89.2665 270.8477 15.34399899 31238

JSON: /api/v1/satellites/68048 · /tle

For live sub-satellite position, see the globe view (requires WebGL).

§ Visibility from observer

Set your observer location to see the next 7 days of passes ≥ 10°. The values pass through the URL so the page stays shareable.

No JS? Fill the form by hand. The geolocation button needs JavaScript.